This is the latest recevied weather packets stored in our database for station/object N6SPP. If no packets are shown the sender has not sent any weather packets the latest 1 day(s).
| Time | Temp. | Humidity | Pressure | Rain* | Wind** | Luminosity | Snow |
|---|---|---|---|---|---|---|---|
| 1777988024 | 12.22° C | 85% | 1016.1 hPa | 0 mm | 1.79 m/s, 170° | 11 W/m² | - |
| 1777987720 | 12.22° C | 85% | 1016.3 hPa | 0 mm | 1.79 m/s, 20° | 8 W/m² | - |
| 1777987417 | 12.22° C | 85% | 1016.3 hPa | 0 mm | 1.79 m/s, 213° | 4 W/m² | - |
| 1777987114 | 12.22° C | 85% | 1016.4 hPa | 0 mm | 2.68 m/s, 186° | 3 W/m² | - |
| 1777986811 | 11.67° C | 86% | 1016.2 hPa | 0 mm | 1.79 m/s, 151° | 2 W/m² | - |
| 1777986509 | 11.67° C | 85% | 1016 hPa | 0 mm | 1.79 m/s, 150° | 1 W/m² | - |
| 1777986207 | 11.67° C | 85% | 1016.2 hPa | 0 mm | 1.79 m/s, 169° | 1 W/m² | - |
| 1777985904 | 12.22° C | 85% | 1016.5 hPa | 0 mm | 0.89 m/s, 164° | 0 W/m² | - |
| 1777985601 | 12.22° C | 84% | 1016.3 hPa | 0 mm | 1.34 m/s, 203° | 0 W/m² | - |
| 1777985298 | 12.22° C | 84% | 1016.4 hPa | 0 mm | 1.34 m/s, 219° | 0 W/m² | - |
| 1777984995 | 12.22° C | 85% | 1016.1 hPa | 0 mm | 2.24 m/s, 222° | 0 W/m² | - |
| 1777984690 | 12.22° C | 85% | 1016.2 hPa | 0 mm | 1.34 m/s, 280° | 0 W/m² | - |
| 1777984387 | 12.22° C | 85% | 1016 hPa | 0 mm | 0.89 m/s, 204° | 0 W/m² | - |
| 1777984083 | 12.22° C | 84% | 1016 hPa | 0 mm | 0.45 m/s, 127° | 0 W/m² | - |
| 1777983781 | 12.22° C | 85% | 1016 hPa | 0 mm | 2.24 m/s, 215° | 0 W/m² | - |
| 1777983477 | 12.22° C | 84% | 1016.1 hPa | 0 mm | 3.13 m/s, 170° | 0 W/m² | - |
| 1777983174 | 12.22° C | 85% | 1016 hPa | 0 mm | 2.24 m/s, 232° | 0 W/m² | - |
| 1777982870 | 11.67° C | 85% | 1016 hPa | 0 mm | 0.89 m/s, 275° | 0 W/m² | - |
| 1777982567 | 11.67° C | 85% | 1016.3 hPa | 0 mm | 0.45 m/s, 311° | 0 W/m² | - |
| 1777982265 | 11.67° C | 85% | 1016.5 hPa | 0 mm | 0.45 m/s, 249° | 0 W/m² | - |
| 1777981963 | 11.67° C | 86% | 1016.5 hPa | 0 mm | 0.45 m/s, 222° | 0 W/m² | - |
| 1777981660 | 11.67° C | 86% | 1016.3 hPa | 0 mm | 1.34 m/s, 193° | 0 W/m² | - |
| 1777981359 | 11.67° C | 86% | 1016.4 hPa | 0 mm | 0.89 m/s, 189° | 0 W/m² | - |
| 1777981053 | 11.67° C | 86% | 1016.3 hPa | 0 mm | 0.89 m/s, 141° | 0 W/m² | - |
| 1777980750 | 11.67° C | 87% | 1016.3 hPa | 0 mm | 0.89 m/s, 323° | 0 W/m² | - |
* Rain latest hour (hover to see other rain measurements)
** Current wind speed in m/s (hover to see current wind gust speed)